{"data":{"norad_id":63787,"epoch":"2026-09-20T15:28:00.403968Z","epoch_age_seconds":137354,"freshness":"FRESH","line1":"1 63787U 25091N   26263.64444912  .00009361  00000+0  34914-3 0  9993","line2":"2 63787  42.9994  31.9073 0000371 266.4777  93.6032 15.27590080 78716","mean_motion":15.2759008,"eccentricity":3.71e-5,"inclination_deg":42.9994,"raan_deg":31.9073,"arg_perigee_deg":266.4777,"mean_anomaly_deg":93.6032,"bstar":0.00034914,"rev_number":7871,"period_min":94.266126682362,"perigee_km":482.76436417499,"apogee_km":483.27346194374,"semimajor_km":6861.1559130594,"source":"CELESTRAK","updated_at":"2026-09-21T09:00:35.100078Z"}}